Flag for Canada Weather past 2 weeks in Saguenay, Quebec, Canada

Now
39 °F

Chilly.


Feels Like: 30 °F
Forecast: 40 / 46 °F
Wind: 15 mph from East

Location: Jonquiere Airport

Current Time: Apr 21, 2015 at 1:35:47 AM

Latest Report: Apr 21, 2015 at 1:00 AM


Visibility: N/A

Pressure: 29.84 "Hg

Humidity: 75%

Dew point: 31 °F

Location of SaguenayLocation

Historic Weather in Saguenay — Graph

°F

Saguenay temperature yesterday

Maximum temperature yesterday: 46 °F (at 3:00 PM)
Minimum temperature yesterday: 29 °F (at 2:00 AM)
Average temperature yesterday: 37 °F

Past Weeks' High & Low Weather Summary

 TemperatureHumidityPressure
High69 °F (Apr 13, 3:00 PM)100% (Apr 10, 11:00 AM)30.58 "Hg (Apr 10, 11:00 AM)
Low0 °F (Apr 6, 6:00 AM)18% (Apr 16, 6:00 PM)29.25 "Hg (Apr 11, 5:00 AM)
Average36 °F55%30.09 "Hg
* Reported Midnight between Apr 5 and Apr 6 — Midnight between Apr 20 and Apr 21, Saguenay, Weather by CustomWeather, © 2015

Note: Actual official high and low records may vary slightly from our data, if they occured in-between our weather recording intervals... More about our weather records

Advertising

Saguenay weather history for previous 24 hours

 ConditionsComfort  
Time TempWeatherWind HumidityBarometerVisibility
12:00 AM
Tue, Apr 21
40 °FChilly.12 mph72%29.86 "HgN/A
11:00 PM
Mon, Apr 20
38 °FChilly.12 mph77%29.89 "HgN/A
10:00 PM39 °FChilly.12 mph74%29.91 "HgN/A
9:00 PM39 °FChilly.12 mph68%29.93 "HgN/A
8:00 PM39 °FChilly.13 mph60%29.93 "HgN/A
7:00 PM41 °FQuite cool.13 mph47%29.95 "HgN/A
6:00 PM43 °FQuite cool.14 mph44%29.95 "HgN/A
5:00 PM44 °FQuite cool.15 mph37%29.97 "HgN/A
4:00 PM44 °FQuite cool.12 mph35%30.00 "HgN/A
3:00 PM46 °FCool.15 mph31%30.03 "HgN/A
2:00 PM46 °FCool.14 mph30%30.07 "HgN/A
1:00 PM44 °FQuite cool.13 mph31%30.10 "HgN/A
12:00 PM44 °FQuite cool.13 mph32%30.13 "HgN/A
11:00 AM41 °FQuite cool.16 mph36%30.16 "HgN/A
10:00 AM38 °FChilly.14 mph41%30.20 "HgN/A
9:00 AM36 °FChilly.15 mph48%30.22 "HgN/A
8:00 AM34 °FChilly.14 mph51%30.25 "HgN/A
7:00 AM31 °FChilly.14 mph54%30.26 "HgN/A
6:00 AM32 °FChilly.13 mph50%30.27 "HgN/A
5:00 AM30 °FChilly.8 mph59%30.27 "HgN/A
4:00 AM31 °FChilly.8 mph60%30.27 "HgN/A
3:00 AM30 °FChilly.6 mph59%30.27 "HgN/A
2:00 AM29 °FChilly.5 mph61%30.27 "HgN/A
1:00 AM29 °FChilly.3 mph61%30.28 "HgN/A
Weather by CustomWeather, © 2015

See weather overviewHow to use our weather pages